Regional Weather Roundup
Issued by NWS

Home | Current Version | Previous Version | Graphics & Text | Print | Product List | Glossary On
Versions: 1 2 3 4 5 6 7 8 9 10 11 12 13 14 15 16 17 18 19 20 21 22 23 24 25 26 27
000
ASUS45 KBOI 220910
RWRID

IDAHO REGIONAL WEATHER ROUNDUP
NATIONAL WEATHER SERVICE BOISE ID
300 AM MDT SAT JUL 22 2017

NOTE: "FAIR" INDICATES FEW OR NO CLOUDS BELOW 12000 FEET
WITH NO SIGNIFICANT WEATHER AND/OR OBSTRUCTIONS TO VISIBILITY

IDZ012-014-221000-
SOUTHWEST IDAHO


CITY           SKY/WX    TMP DP  RH WIND       PRES   REMARKS
BOISE          CLEAR     64  45  49 SW5       30.05R
CALDWELL       CLEAR     67  41  38 W8        30.05R
MOUNTAIN HOME  CLEAR     65  42  42 NW9       30.05R
$$

IDZ016-017-221000-
SOUTHCENTRAL IDAHO


CITY           SKY/WX    TMP DP  RH WIND       PRES   REMARKS
BURLEY         CLEAR     58  44  60 S5        30.09S
JEROME         CLEAR     66  37  34 S5        30.10S
TWIN FALLS     CLEAR     67  33  28 S12       30.11R
$$

IDZ019>023-221000-
SOUTHEAST IDAHO


CITY           SKY/WX    TMP DP  RH WIND       PRES   REMARKS
IDAHO FALLS    CLEAR     62  42  47 S10       30.13R
POCATELLO      CLEAR     57  36  45 CALM      30.12S
REXBURG        CLEAR     54  44  69 CALM      30.15R
$$

IDZ006-010-011-018-031-032-221000-
CENTRAL IDAHO MOUNTAINS


CITY           SKY/WX    TMP DP  RH WIND       PRES   REMARKS
MCCALL         CLEAR     62  36  37 N8        30.21S
HAILEY         CLEAR     55  34  44 NW12      30.20S
STANLEY          N/A     41  30  65 CALM      30.31S
SALMON         NOT AVBL
CHALLIS        CLEAR     58  35  42 S3        30.20R
$$

IDZ002-004-006-007-026-221000-
NORTHERN IDAHO


CITY           SKY/WX    TMP DP  RH WIND       PRES   REMARKS
LEWISTON       CLEAR     64  36  35 CALM      30.10S
LOWELL           N/A     57  46  66 CALM      30.15R
COEUR D`ALENE  CLEAR     58  45  62 E3        30.13S
MULLAN PASS    CLEAR     53  33  46 VRB3      30.28R
$$




USA.gov is the U.S. government's official web portal to all federal, state and local government web resources and services.